EW9532 Weather Reports


Display with metric or nautical units.
time (UTC)temp
F
wind
direction
speed
MPH
gust
MPH
rain 1hr
in
rain 24hr
in
rain mn
in
humidity
%
barometer
mb
20260902005501 93 214 5.0 11.0 0.00 0.00 0.00 52 1013.0
20260902005002 94 221 4.0 11.0 0.00 0.00 0.00 52 1013.0
20260902004603 93 180 4.0 11.0 0.00 0.00 0.00 51 1013.2
20260902004502 94 319 5.0 11.0 0.00 0.00 0.00 51 1013.0
20260902004001 94 20 5.0 11.0 0.00 0.00 0.00 51 1012.9
20260902003502 95 58 4.0 8.0 0.00 0.00 0.00 50 1012.9
20260902003104 95 240 3.0 9.0 0.00 0.00 0.00 49 1013.1
20260902003002 95 139 4.0 8.0 0.00 0.00 0.00 50 1012.8
20260902002500 96 288 4.0 9.0 0.00 0.00 0.00 49 1012.7
20260902002002 96 292 4.0 10.0 0.00 0.00 0.00 49 1012.6
20260902001556 96 210 3.0 10.0 0.00 0.00 0.00 48 1012.8
20260902001501 96 325 4.0 10.0 0.00 0.00 0.00 48 1012.5
20260902001001 97 94 5.0 9.0 0.00 0.00 0.00 46 1012.6
20260902000501 97 56 5.0 9.0 0.00 0.00 0.00 46 1012.5
20260902000055 97 88 4.0 10.0 0.00 0.00 0.00 44 1012.7
20260902000002 98 196 5.0 8.0 0.00 0.00 0.00 45 1012.5
20260901235500 98 200 3.0 8.0 0.00 0.00 0.00 43 1012.4
20260901235002 99 219 3.0 8.0 0.00 0.00 0.00 42 1012.4
20260901234635 98 198 3.0 8.0 0.00 0.00 0.00 42 1012.5
20260901234447 99 103 4.0 8.0 0.00 0.00 0.00 42 1012.2
20260901233941 99 242 4.0 8.0 0.00 0.00 0.00 41 1012.3
20260901233440 99 167 4.0 9.0 0.00 0.00 0.00 41 1012.2
20260901233103 99 82 6.0 11.0 0.00 0.00 0.00 40 1012.4
20260901232935 99 184 6.0 9.0 0.00 0.00 0.00 40 1012.2
20260901232435 100 347 3.0 7.0 0.00 0.00 0.00 39 1012.4
20260901231929 100 262 3.0 9.0 0.00 0.00 0.00 40 1012.3
20260901231607 100 3 5.0 8.0 0.00 0.00 0.00 39 1012.4
20260901231429 101 263 5.0 9.0 0.00 0.00 0.00 39 1012.2
20260901230929 101 67 4.0 9.0 0.00 0.00 0.00 38 1012.0
20260901230429 101 216 4.0 11.0 0.00 0.00 0.00 37 1012.1
20260901230159 101 336 4.0 11.0 0.00 0.00 0.00 37 1012.0
20260901230112 101 229 3.0 11.0 0.00 0.00 0.00 37 1012.3
20260901225929 101 238 4.0 11.0 0.00 0.00 0.00 37 1012.0
20260901224928 102 77 3.0 8.0 0.00 0.00 0.00 37 1012.0
20260901224603 101 112 3.0 8.0 0.00 0.00 0.00 36 1012.1
20260901224430 102 358 4.0 8.0 0.00 0.00 0.00 37 1012.1
20260901223930 102 176 2.0 7.0 0.00 0.00 0.00 37 1012.0
20260901223430 102 98 5.0 7.0 0.00 0.00 0.00 36 1012.1
20260901223126 102 229 4.0 9.0 0.00 0.00 0.00 35 1012.3
20260901222929 103 257 1.0 7.0 0.00 0.00 0.00 36 1012.0
20260901222429 102 289 3.0 7.0 0.00 0.00 0.00 37 1012.0
20260901221928 102 285 3.0 7.0 0.00 0.00 0.00 37 1012.0
20260901221618 102 226 4.0 9.0 0.00 0.00 0.00 36 1012.4
20260901221431 102 288 6.0 7.0 0.00 0.00 0.00 37 1012.0
20260901221157 103 276 2.0 11.0 0.00 0.00 0.00 36 1012.0
20260901220718 103 297 4.0 11.0 0.00 0.00 0.00 37 1012.1
20260901220057 103 79 2.0 8.0 0.00 0.00 0.00 37 1012.3
20260901215931 104 304 3.0 6.0 0.00 0.00 0.00 38 1012.1
20260901215428 103 106 2.0 6.0 0.00 0.00 0.00 39 1012.1
20260901214928 103 307 3.0 10.0 0.00 0.00 0.00 38 1012.2
20260901214600 103 286 4.0 9.0 0.00 0.00 0.00 37 1012.4
20260901214429 103 233 5.0 10.0 0.00 0.00 0.00 37 1012.2
20260901213929 104 272 2.0 8.0 0.00 0.00 0.00 37 1012.3
20260901213429 103 245 3.0 10.0 0.00 0.00 0.00 38 1012.3
20260901213126 103 225 3.0 9.0 0.00 0.00 0.00 39 1012.5
20260901212929 103 227 4.0 10.0 0.00 0.00 0.00 38 1012.4
20260901212429 103 262 3.0 11.0 0.00 0.00 0.00 37 1012.4
20260901211929 104 253 5.0 11.0 0.00 0.00 0.00 38 1012.4
20260901211602 103 229 2.0 13.0 0.00 0.00 0.00 38 1012.6
20260901211431 103 290 3.0 11.0 0.00 0.00 0.00 40 1012.4
20260901210929 103 37 5.0 11.0 0.00 0.00 0.00 41 1012.4
20260901210429 103 64 3.0 12.0 0.00 0.00 0.00 41 1012.6
20260901210101 103 123 4.0 13.0 0.00 0.00 0.00 40 1012.8
20260901205929 103 181 4.0 12.0 0.00 0.00 0.00 40 1012.6
20260901205428 103 209 3.0 8.0 0.00 0.00 0.00 41 1012.6
20260901204928 103 133 3.0 7.0 0.00 0.00 0.00 41 1012.8
20260901204559 102 250 2.0 9.0 0.00 0.00 0.00 41 1013.1
20260901204431 103 207 3.0 7.0 0.00 0.00 0.00 42 1012.9
20260901203930 102 124 2.0 9.0 0.00 0.00 0.00 43 1012.9
20260901203431 102 70 3.0 9.0 0.00 0.00 0.00 43 1013.1
20260901203107 102 82 3.0 8.0 0.00 0.00 0.00 41 1013.3
20260901202928 103 53 2.0 8.0 0.00 0.00 0.00 41 1013.0
20260901202429 102 36 4.0 10.0 0.00 0.00 0.00 41 1013.1
20260901202151 102 188 4.0 10.0 0.00 0.00 0.00 43 1013.2
20260901201654 102 335 2.0 9.0 0.00 0.00 0.00 43 1013.2
20260901201604 101 295 1.0 8.0 0.00 0.00 0.00 43 1013.5
20260901200929 103 311 3.0 7.0 0.00 0.00 0.00 41 1013.4
20260901200429 103 296 3.0 7.0 0.00 0.00 0.00 40 1013.5
20260901195929 103 190 2.0 6.0 0.00 0.00 0.00 42 1013.5
20260901195428 102 140 1.0 7.0 0.00 0.00 0.00 42 1013.7
20260901194929 103 264 3.0 7.0 0.00 0.00 0.00 41 1013.8
20260901194559 102 40 4.0 9.0 0.00 0.00 0.00 41 1013.9
20260901194428 103 169 4.0 10.0 0.00 0.00 0.00 40 1013.8
20260901193923 102 97 3.0 10.0 0.00 0.00 0.00 40 1013.9
20260901193418 102 181 2.0 8.0 0.00 0.00 0.00 39 1014.0
20260901193133 103 34 4.0 7.0 0.00 0.00 0.00 41 1014.0
20260901193108 102 56 3.0 7.0 0.00 0.00 0.00 39 1014.2
20260901192411 102 220 3.0 8.0 0.00 0.00 0.00 42 1014.0
20260901191905 102 233 3.0 10.0 0.00 0.00 0.00 39 1014.1
20260901191553 102 197 3.0 10.0 0.00 0.00 0.00 42 1014.4
20260901191402 102 311 4.0 10.0 0.00 0.00 0.00 41 1014.2
20260901190902 101 14 4.0 11.0 0.00 0.00 0.00 42 1014.3
20260901190401 101 41 4.0 11.0 0.00 0.00 0.00 40 1014.5
20260901190052 101 136 1.0 9.0 0.00 0.00 0.00 43 1014.7
20260901185901 101 222 2.0 9.0 0.00 0.00 0.00 43 1014.5
20260901185623 101 226 4.0 10.0 0.00 0.00 0.00 44 1014.6
20260901184902 101 186 4.0 10.0 0.00 0.00 0.00 40 1014.7
20260901184626 100 253 4.0 11.0 0.00 0.00 0.00 43 1015.0
20260901184402 101 237 3.0 9.0 0.00 0.00 0.00 43 1014.6
20260901183901 100 265 3.0 9.0 0.00 0.00 0.00 45 1014.9
20260901183401 100 86 4.0 9.0 0.00 0.00 0.00 46 1014.9
20260901183057 99 158 3.0 9.0 0.00 0.00 0.00 45 1015.3
20260901182901 100 51 3.0 9.0 0.00 0.00 0.00 47 1015.1
20260901182402 100 136 3.0 6.0 0.00 0.00 0.00 46 1015.2
20260901181901 99 262 3.0 8.0 0.00 0.00 0.00 46 1015.2
20260901181627 99 350 3.0 8.0 0.00 0.00 0.00 46 1015.6
20260901181401 99 248 5.0 8.0 0.00 0.00 0.00 46 1015.3
20260901180901 99 59 2.0 9.0 0.00 0.00 0.00 48 1015.4
20260901180406 99 262 2.0 10.0 0.00 0.00 0.00 49 1015.5
20260901180402 99 188 4.0 9.0 0.00 0.00 0.00 47 1015.6
20260901180109 98 231 2.0 10.0 0.00 0.00 0.00 47 1015.8
20260901175401 98 136 4.0 10.0 0.00 0.00 0.00 47 1015.7
20260901174914 98 139 4.0 11.0 0.00 0.00 0.00 51 1015.9
20260901174805 97 348 3.0 11.0 0.00 0.00 0.00 50 1016.1
20260901174402 98 212 3.0 11.0 0.00 0.00 0.00 51 1015.8
20260901173901 97 285 2.0 6.0 0.00 0.00 0.00 52 1015.9
20260901173401 97 276 3.0 6.0 0.00 0.00 0.00 51 1015.8
20260901173102 97 345 2.0 11.0 0.00 0.00 0.00 51 1016.1
20260901172901 97 334 3.0 9.0 0.00 0.00 0.00 52 1015.9
20260901172400 96 136 4.0 9.0 0.00 0.00 0.00 53 1015.8
20260901171900 96 141 4.0 7.0 0.00 0.00 0.00 52 1016.0
20260901171627 96 259 2.0 7.0 0.00 0.00 0.00 52 1016.3
20260901171400 97 108 2.0 6.0 0.00 0.00 0.00 52 1016.1
20260901170903 96 217 3.0 9.0 0.00 0.00 0.00 52 1016.1
20260901170402 95 193 3.0 9.0 0.00 0.00 0.00 55 1016.1
20260901170106 95 54 3.0 8.0 0.00 0.00 0.00 52 1016.6
20260901165903 95 118 3.0 8.0 0.00 0.00 0.00 53 1016.3
20260901165613 94 214 3.0 9.0 0.00 0.00 0.00 57 1016.4
20260901165602 95 327 2.0 8.0 0.00 0.00 0.00 56 1016.2
20260901164606 93 78 4.0 9.0 0.00 0.00 0.00 57 1016.6
20260901164402 94 249 4.0 9.0 0.00 0.00 0.00 58 1016.4
20260901163902 93 296 3.0 8.0 0.00 0.00 0.00 60 1016.4
20260901163403 93 39 2.0 8.0 0.00 0.00 0.00 60 1016.4
20260901163121 92 72 3.0 8.0 0.00 0.00 0.00 60 1016.6
20260901162903 93 126 4.0 8.0 0.00 0.00 0.00 61 1016.3
20260901162624 92 321 4.0 8.0 0.00 0.00 0.00 63 1016.3
20260901161901 92 277 3.0 9.0 0.00 0.00 0.00 63 1016.3
20260901161606 91 250 3.0 8.0 0.00 0.00 0.00 64 1016.6
20260901161401 92 188 3.0 9.0 0.00 0.00 0.00 64 1016.4
20260901160902 92 196 2.0 6.0 0.00 0.00 0.00 64 1016.5
20260901160401 92 69 1.0 8.0 0.00 0.00 0.00 66 1016.6
20260901160107 91 144 3.0 8.0 0.00 0.00 0.00 65 1016.7
20260901155901 91 285 3.0 8.0 0.00 0.00 0.00 65 1016.6
20260901155400 91 56 2.0 7.0 0.00 0.00 0.00 66 1016.5
20260901155119 90 186 4.0 7.0 0.00 0.00 0.00 68 1016.5
20260901154614 90 143 3.0 10.0 0.00 0.00 0.00 67 1016.7
20260901154400 90 105 4.0 6.0 0.00 0.00 0.00 67 1016.5
20260901153903 89 351 2.0 7.0 0.00 0.00 0.00 69 1016.4
20260901153402 89 215 3.0 7.0 0.00 0.00 0.00 69 1016.5
20260901153102 89 297 2.0 9.0 0.00 0.00 0.00 69 1016.7
20260901152903 89 96 2.0 10.0 0.00 0.00 0.00 70 1016.4
20260901152415 89 174 3.0 10.0 0.00 0.00 0.00 71 1016.4
20260901151902 88 241 3.0 10.0 0.00 0.00 0.00 72 1016.4
20260901151558 87 88 3.0 10.0 0.00 0.00 0.00 72 1016.6
20260901151402 88 99 4.0 10.0 0.00 0.00 0.00 72 1016.3
20260901150901 87 215 4.0 9.0 0.00 0.00 0.00 72 1016.3
20260901150401 87 205 4.0 8.0 0.00 0.00 0.00 73 1016.3
20260901150056 87 18 2.0 9.0 0.00 0.00 0.00 73 1016.6
20260901145901 87 203 3.0 9.0 0.00 0.00 0.00 75 1016.2
20260901145401 87 194 4.0 9.0 0.00 0.00 0.00 74 1016.2
20260901145127 87 280 4.0 6.0 0.00 0.00 0.00 75 1016.3
20260901144603 86 254 2.0 9.0 0.00 0.00 0.00 76 1016.6
20260901144401 86 15 2.0 6.0 0.00 0.00 0.00 77 1016.4
20260901144121 86 333 2.0 8.0 0.00 0.00 0.00 77 1016.4
20260901143402 86 56 3.0 10.0 0.00 0.00 0.00 77 1016.4
20260901143108 85 73 3.0 9.0 0.00 0.00 0.00 78 1016.6
20260901142902 85 270 3.0 10.0 0.00 0.00 0.00 77 1016.4
20260901142401 85 49 3.0 8.0 0.00 0.00 0.00 78 1016.5
20260901141901 85 292 2.0 7.0 0.00 0.00 0.00 80 1016.4
20260901141723 84 183 2.0 7.0 0.00 0.00 0.00 80 1016.7
20260901141401 84 296 3.0 6.0 0.00 0.00 0.00 80 1016.5
20260901141345 84 298 2.0 6.0 0.00 0.00 0.00 81 1016.4
20260901140854 84 197 3.0 6.0 0.00 0.00 0.00 82 1016.4
20260901140120 83 276 2.0 8.0 0.00 0.00 0.00 81 1016.4
20260901135903 83 308 3.0 6.0 0.00 0.00 0.00 82 1016.3
20260901135402 83 272 2.0 6.0 0.00 0.00 0.00 83 1016.2
20260901134902 83 240 2.0 6.0 0.00 0.00 0.00 83 1016.2
20260901134639 82 189 1.0 6.0 0.00 0.00 0.00 83 1016.5
20260901134402 82 217 2.0 6.0 0.00 0.00 0.00 84 1016.2
20260901133903 82 180 3.0 6.0 0.00 0.00 0.00 84 1016.1
20260901133621 82 184 2.0 5.0 0.00 0.00 0.00 84 1016.0
20260901133105 82 330 1.0 4.0 0.00 0.00 0.00 84 1016.3
20260901132900 82 50 2.0 4.0 0.00 0.00 0.00 84 1016.1
20260901132400 82 113 1.0 3.0 0.00 0.00 0.00 84 1016.1
20260901131901 82 38 1.0 2.0 0.00 0.00 0.00 84 1016.0
20260901131702 81 201 1.0 4.0 0.00 0.00 0.00 84 1016.3
20260901131401 82 115 2.0 3.0 0.00 0.00 0.00 85 1016.0
20260901130859 82 138 1.0 4.0 0.00 0.00 0.00 85 1015.9
20260901130354 81 113 0.0 4.0 0.00 0.00 0.00 86 1016.0
20260901130125 81 94 1.0 4.0 0.00 0.00 0.00 86 1015.9
20260901130108 80 188 1.0 4.0 0.00 0.00 0.00 85 1016.2
20260901125350 80 68 1.0 4.0 0.00 0.00 0.00 87 1015.8
20260901124840 80 160 1.0 2.0 0.00 0.00 0.00 87 1015.7
20260901124608 79 0 0.0 3.0 0.00 0.00 0.00 87 1016.0
20260901124340 80 252 0.0 2.0 0.00 0.00 0.00 88 1015.7
20260901123830 79 334 1.0 3.0 0.00 0.00 0.00 89 1015.6
20260901123551 79 248 1.0 3.0 0.00 0.00 0.00 89 1015.6
20260901123104 79 97 0.0 3.0 0.00 0.00 0.00 88 1015.8
20260901122822 79 226 0.0 2.0 0.00 0.00 0.00 89 1015.6
20260901122318 79 30 0.0 3.0 0.00 0.00 0.00 89 1015.7
20260901121815 79 237 0.0 3.0 0.00 0.00 0.00 88 1015.6
20260901121604 79 351 0.0 3.0 0.00 0.00 0.00 88 1015.7
20260901121304 79 259 0.0 2.0 0.00 0.00 0.00 88 1015.5
20260901120803 79 27 0.0 2.0 0.00 0.00 0.00 88 1015.4
20260901120302 79 233 0.0 4.0 0.00 0.00 0.00 88 1015.3
20260901120108 79 83 0.0 3.0 0.00 0.00 0.00 88 1015.5
20260901115803 79 311 1.0 4.0 0.00 0.00 0.00 88 1015.3
20260901115306 79 216 1.0 3.0 0.00 0.00 0.00 88 1015.3
20260901114812 79 292 0.0 3.0 0.00 0.00 0.00 88 1015.4
20260901114557 79 358 0.0 3.0 0.00 0.00 0.00 87 1015.6
20260901114255 79 139 1.0 3.0 0.00 0.00 0.00 88 1015.3
20260901113749 79 215 0.0 3.0 0.00 0.00 0.00 88 1015.4
20260901113245 80 359 1.0 4.0 0.00 0.00 0.00 88 1015.4
20260901113143 79 75 1.0 5.0 0.00 0.00 0.00 87 1015.5
20260901112740 79 295 1.0 5.0 0.00 0.00 0.00 88 1015.3
20260901112240 79 103 2.0 5.0 0.00 0.00 0.00 88 1015.3
20260901111736 79 325 1.0 4.0 0.00 0.00 0.00 88 1015.3
20260901111604 79 276 1.0 4.0 0.00 0.00 0.00 87 1015.6
20260901111231 79 258 1.0 4.0 0.00 0.00 0.00 88 1015.3
20260901110729 79 5 1.0 4.0 0.00 0.00 0.00 88 1015.4
20260901110230 80 298 0.0 4.0 0.00 0.00 0.00 88 1015.5
20260901110108 79 0 0.0 3.0 0.00 0.00 0.00 87 1015.5
20260901105952 80 37 1.0 4.0 0.00 0.00 0.00 87 1015.4
20260901105229 80 236 0.0 3.0 0.00 0.00 0.00 87 1015.3
20260901104729 80 162 1.0 3.0 0.00 0.00 0.00 87 1015.3
20260901104601 79 290 0.0 6.0 0.00 0.00 0.00 87 1015.5
20260901104228 80 181 0.0 6.0 0.00 0.00 0.00 87 1015.3
20260901103950 80 345 1.0 6.0 0.00 0.00 0.00 87 1015.3
20260901103229 80 50 0.0 4.0 0.00 0.00 0.00 87 1015.2
20260901103106 79 13 1.0 4.0 0.00 0.00 0.00 86 1015.4
20260901102950 80 111 2.0 3.0 0.00 0.00 0.00 87 1015.3
20260901102229 80 226 0.0 2.0 0.00 0.00 0.00 87 1015.5
20260901101728 80 93 1.0 5.0 0.00 0.00 0.00 86 1015.3
20260901101616 80 73 1.0 5.0 0.00 0.00 0.00 86 1015.6
20260901101229 80 18 2.0 5.0 0.00 0.00 0.00 86 1015.4
20260901100728 80 28 2.0 4.0 0.00 0.00 0.00 86 1015.4
20260901100229 80 202 1.0 3.0 0.00 0.00 0.00 86 1015.5
20260901100108 80 215 1.0 3.0 0.00 0.00 0.00 86 1015.6
20260901095729 80 256 1.0 3.0 0.00 0.00 0.00 86 1015.5
20260901095229 80 198 0.0 3.0 0.00 0.00 0.00 86 1015.6
20260901094729 81 11 0.0 5.0 0.00 0.00 0.00 86 1015.5
20260901094603 80 0 1.0 5.0 0.00 0.00 0.00 85 1015.6
20260901094453 81 241 2.0 5.0 0.00 0.00 0.00 86 1015.4
20260901093729 81 349 1.0 4.0 0.00 0.00 0.00 86 1015.5
20260901093230 81 215 2.0 5.0 0.00 0.00 0.00 86 1015.4
20260901093100 80 56 1.0 4.0 0.00 0.00 0.00 85 1015.6
20260901092730 81 95 2.0 5.0 0.00 0.00 0.00 86 1015.4
20260901092231 81 234 1.0 3.0 0.00 0.00 0.00 85 1015.5
20260901091730 81 269 1.0 3.0 0.00 0.00 0.00 85 1015.6
20260901091555 80 214 0.0 7.0 0.00 0.00 0.00 85 1015.7
20260901091229 81 19 2.0 7.0 0.00 0.00 0.00 85 1015.6
20260901090954 81 202 1.0 7.0 0.00 0.00 0.00 85 1015.6
20260901090447 81 193 1.0 4.0 0.00 0.00 0.00 85 1015.7
20260901090428 81 212 2.0 6.0 0.00 0.00 0.00 85 1015.6
20260901090100 81 330 1.0 5.0 0.00 0.00 0.00 85 1015.8
20260901085229 81 229 1.0 4.0 0.00 0.00 0.00 85 1015.8
20260901084729 81 176 1.0 4.0 0.00 0.00 0.00 85 1015.7
20260901084600 81 335 0.0 4.0 0.00 0.00 0.00 84 1015.9
20260901084229 81 126 1.0 4.0 0.00 0.00 0.00 85 1015.7
20260901083729 81 13 1.0 5.0 0.00 0.00 0.00 84 1015.7
20260901083229 81 169 1.0 5.0 0.00 0.00 0.00 84 1015.7
20260901083100 81 47 1.0 6.0 0.00 0.00 0.00 84 1015.8
20260901082954 82 290 1.0 5.0 0.00 0.00 0.00 84 1015.8
20260901082229 82 233 1.0 5.0 0.00 0.00 0.00 84 1015.7
20260901082000 82 274 1.0 5.0 0.00 0.00 0.00 84 1015.8
20260901081602 81 7 1.0 5.0 0.00 0.00 0.00 84 1016.1
20260901081229 82 225 1.0 5.0 0.00 0.00 0.00 84 1015.9
20260901080729 82 219 1.0 5.0 0.00 0.00 0.00 84 1015.8
20260901080231 82 338 1.0 7.0 0.00 0.00 0.00 84 1015.8
20260901080053 81 191 1.0 6.0 0.00 0.00 0.00 83 1016.0
20260901075731 82 250 1.0 7.0 0.00 0.00 0.00 84 1015.9
20260901075230 82 93 1.0 5.0 0.00 0.00 0.00 83 1015.7
20260901074731 82 226 2.0 4.0 0.00 0.00 0.00 83 1015.8
20260901074606 82 349 1.0 4.0 0.00 0.00 0.00 83 1016.2
20260901074229 82 257 2.0 4.0 0.00 0.00 0.00 83 1015.8
20260901073729 82 255 1.0 6.0 0.00 0.00 0.00 83 1015.9
20260901073229 82 255 2.0 6.0 0.00 0.00 0.00 83 1015.8
20260901073106 82 238 1.0 4.0 0.00 0.00 0.00 83 1016.0
20260901072729 82 287 1.0 4.0 0.00 0.00 0.00 83 1015.7
20260901072230 82 191 1.0 4.0 0.00 0.00 0.00 83 1015.8
20260901071728 82 247 2.0 4.0 0.00 0.00 0.00 83 1016.0
20260901071720 82 326 1.0 6.0 0.00 0.00 0.00 83 1016.0
20260901071603 82 44 1.0 4.0 0.00 0.00 0.00 82 1016.2
20260901071000 83 243 2.0 6.0 0.00 0.00 0.00 83 1016.1
20260901070230 83 191 3.0 6.0 0.00 0.00 0.00 83 1016.1
20260901070103 82 124 1.0 5.0 0.00 0.00 0.00 82 1016.3
20260901065959 83 53 2.0 5.0 0.00 0.00 0.00 83 1016.1
20260901065229 83 118 2.0 5.0 0.00 0.00 0.00 82 1016.1
20260901064729 83 202 2.0 5.0 0.00 0.00 0.00 82 1016.1
20260901064555 82 317 1.0 4.0 0.00 0.00 0.00 82 1016.3
20260901064228 83 210 1.0 5.0 0.00 0.00 0.00 82 1016.1
20260901063729 83 129 2.0 6.0 0.00 0.00 0.00 82 1016.0
20260901063230 83 122 2.0 6.0 0.00 0.00 0.00 82 1016.1
20260901063100 83 329 2.0 6.0 0.00 0.00 0.00 82 1016.3
20260901062729 83 343 1.0 4.0 0.00 0.00 0.00 82 1016.0
20260901062229 83 292 1.0 5.0 0.00 0.00 0.00 82 1016.2
20260901061729 83 232 1.0 7.0 0.00 0.00 0.00 82 1016.1
20260901061602 83 70 1.0 6.0 0.00 0.00 0.00 81 1016.5
20260901061228 83 347 0.0 7.0 0.00 0.00 0.00 82 1016.2
20260901060729 83 295 2.0 10.0 0.00 0.00 0.00 82 1016.2
20260901060229 83 352 2.0 10.0 0.00 0.00 0.00 81 1016.3
20260901060100 83 335 1.0 6.0 0.00 0.00 0.00 81 1016.6
20260901055729 83 17 2.0 6.0 0.00 0.00 0.00 81 1016.3
20260901055229 83 281 2.0 6.0 0.00 0.00 0.00 81 1016.3
20260901054729 83 4 1.0 6.0 0.00 0.00 0.00 81 1016.2
20260901054604 83 24 2.0 7.0 0.00 0.00 0.00 81 1016.4
20260901054451 84 214 2.0 6.0 0.00 0.00 0.00 81 1016.3
20260901053728 84 108 2.0 6.0 0.00 0.00 0.00 81 1016.1
20260901053233 84 302 3.0 6.0 0.00 0.00 0.00 81 1016.3
20260901053123 83 162 2.0 7.0 0.00 0.00 0.00 80 1016.5
20260901052950 84 208 2.0 6.0 0.00 0.00 0.00 81 1016.2
20260901052229 84 36 2.0 6.0 0.00 0.00 0.00 81 1016.3
20260901051729 84 207 2.0 7.0 0.00 0.00 0.00 80 1016.3
20260901051607 83 18 2.0 7.0 0.00 0.00 0.00 80 1016.6
20260901051449 84 90 2.0 7.0 0.00 0.00 0.00 80 1016.4
20260901051221 84 142 2.0 5.0 0.00 0.00 0.00 80 1016.4
20260901050231 84 160 2.0 5.0 0.00 0.00 0.00 80 1016.4
20260901050108 84 226 1.0 6.0 0.00 0.00 0.00 79 1016.6
20260901045955 84 249 1.0 6.0 0.00 0.00 0.00 79 1016.3
20260901045455 84 230 3.0 6.0 0.00 0.00 0.00 79 1016.4
20260901044940 84 256 2.0 9.0 0.00 0.00 0.00 79 1016.6
20260901044928 84 177 3.0 8.0 0.00 0.00 0.00 79 1016.4
20260901044634 84 200 2.0 8.0 0.00 0.00 0.00 78 1016.7
20260901043729 84 274 3.0 9.0 0.00 0.00 0.00 78 1016.5
20260901043229 84 185 3.0 7.0 0.00 0.00 0.00 78 1016.6
20260901043053 84 192 2.0 9.0 0.00 0.00 0.00 77 1016.7
20260901042729 84 317 4.0 9.0 0.00 0.00 0.00 77 1016.6
20260901042229 85 191 4.0 9.0 0.00 0.00 0.00 77 1016.4
20260901041729 85 214 4.0 8.0 0.00 0.00 0.00 77 1016.4
20260901041602 84 349 2.0 7.0 0.00 0.00 0.00 76 1016.8
20260901041229 85 140 2.0 7.0 0.00 0.00 0.00 76 1016.5
20260901040729 85 335 3.0 8.0 0.00 0.00 0.00 76 1016.4
20260901040231 85 84 4.0 8.0 0.00 0.00 0.00 76 1016.4
20260901040059 84 304 3.0 8.0 0.00 0.00 0.00 75 1016.6
20260901035957 85 139 2.0 8.0 0.00 0.00 0.00 76 1016.4
20260901035231 85 302 5.0 8.0 0.00 0.00 0.00 76 1016.3
20260901034731 85 124 3.0 9.0 0.00 0.00 0.00 75 1016.2
20260901034601 85 357 2.0 9.0 0.00 0.00 0.00 75 1016.4
20260901034243 85 46 3.0 9.0 0.00 0.00 0.00 75 1016.3
20260901033728 85 324 5.0 9.0 0.00 0.00 0.00 75 1016.1
20260901033229 85 231 4.0 9.0 0.00 0.00 0.00 75 1016.1
20260901033100 85 231 3.0 9.0 0.00 0.00 0.00 74 1016.4
20260901032729 85 86 4.0 8.0 0.00 0.00 0.00 75 1016.1
20260901032229 85 297 4.0 10.0 0.00 0.00 0.00 75 1016.0
20260901031729 86 101 5.0 10.0 0.00 0.00 0.00 74 1016.0
20260901031600 85 3 4.0 11.0 0.00 0.00 0.00 74 1016.2
20260901031229 86 4 4.0 9.0 0.00 0.00 0.00 74 1015.9
20260901030728 86 211 5.0 9.0 0.00 0.00 0.00 73 1015.9
20260901030226 86 96 4.0 11.0 0.00 0.00 0.00 73 1015.9
20260901030105 86 307 3.0 11.0 0.00 0.00 0.00 72 1016.0
20260901025724 86 249 5.0 11.0 0.00 0.00 0.00 72 1015.7
20260901025219 86 150 5.0 8.0 0.00 0.00 0.00 72 1015.6
20260901024715 86 6 5.0 11.0 0.00 0.00 0.00 71 1015.2
20260901024605 86 312 4.0 11.0 0.00 0.00 0.00 71 1015.5
20260901024216 87 20 4.0 12.0 0.00 0.00 0.00 71 1015.1
20260901023705 87 157 4.0 12.0 0.00 0.00 0.00 70 1015.0
20260901023204 87 184 5.0 12.0 0.00 0.00 0.00 69 1015.0
20260901023107 87 231 4.0 10.0 0.00 0.00 0.00 68 1015.0
20260901022712 87 177 5.0 11.0 0.00 0.00 0.00 68 1014.8
20260901022217 87 68 6.0 12.0 0.00 0.00 0.00 67 1014.6
20260901021708 87 56 6.0 12.0 0.00 0.00 0.00 66 1014.6
20260901021634 87 101 5.0 11.0 0.00 0.00 0.00 66 1014.6
20260901021216 88 177 4.0 12.0 0.00 0.00 0.00 65 1014.5
20260901020923 88 44 5.0 13.0 0.00 0.00 0.00 64 1014.5
20260901020156 88 323 7.0 13.0 0.00 0.00 0.00 64 1014.3
20260901020111 88 44 6.0 13.0 0.00 0.00 0.00 63 1014.4
20260901015653 88 300 7.0 12.0 0.00 0.00 0.00 63 1014.3
20260901015147 89 208 4.0 11.0 0.00 0.00 0.00 62 1014.1
20260901014642 89 323 4.0 10.0 0.00 0.00 0.00 62 1014.1
20260901014606 88 333 3.0 12.0 0.00 0.00 0.00 61 1014.3
20260901014405 89 189 5.0 12.0 0.00 0.00 0.00 61 1014.0
20260901013632 89 150 6.0 12.0 0.00 0.00 0.00 62 1013.9
20260901013132 89 227 6.0 10.0 0.00 0.00 0.00 61 1013.9
20260901013109 89 356 5.0 11.0 0.00 0.00 0.00 61 1014.0
20260901012630 90 344 5.0 13.0 0.00 0.00 0.00 61 1013.8
20260901012400 90 108 6.0 13.0 0.00 0.00 0.00 60 1013.8
20260901011628 90 221 4.0 18.0 0.00 0.00 0.00 59 1013.8
20260901011556 90 25 5.0 17.0 0.00 0.00 0.00 59 1013.9
20260901011122 91 16 7.0 18.0 0.00 0.00 0.00 58 1013.6
20260901010632 91 207 4.0 11.0 0.00 0.00 0.00 57 1013.5
20260901010122 91 180 4.0 9.0 0.00 0.00 0.00 56 1013.6
20260901010101 91 257 3.0 13.0 0.00 0.00 0.00 55 1013.7
20260901005841 92 259 5.0 13.0 0.00 0.00 0.00 55 1013.5